FW3814 Weather Reports


time (UTC)temp
F
wind
direction
speed
knots
gust
knots
rain 1hr
in
rain 24hr
in
rain mn
in
humidity
%
barometer
mb
20260831220525 74 9 0.0 0.9 0.00 0.00 0.00 65 1014.6
20260831220004 74 9 0.0 0.9 0.00 0.00 0.00 65 1014.5
20260831215504 74 0 0.0 0.0 0.00 0.00 0.00 64 1014.5
20260831215004 74 360 0.0 0.9 0.00 0.00 0.00 64 1014.4
20260831214525 74 13 0.0 0.9 0.00 0.00 0.00 64 1014.4
20260831214004 74 22 0.0 0.9 0.00 0.00 0.00 64 1014.5
20260831213504 74 0 0.0 0.0 0.00 0.00 0.00 65 1014.4
20260831213004 74 0 0.0 0.0 0.00 0.00 0.00 65 1014.4
20260831212504 75 0 0.0 0.0 0.00 0.00 0.00 65 1014.3
20260831212004 75 0 0.0 0.0 0.00 0.00 0.00 65 1014.4
20260831211504 75 0 0.0 0.0 0.00 0.00 0.00 65 1014.3
20260831211004 75 0 0.0 0.0 0.00 0.00 0.00 64 1014.3
20260831210504 75 0 0.0 0.0 0.00 0.00 0.00 64 1014.4
20260831210004 75 0 0.0 0.0 0.00 0.00 0.00 63 1014.2
20260831205504 75 0 0.0 0.0 0.00 0.00 0.00 63 1014.3
20260831205004 75 0 0.0 0.0 0.00 0.00 0.00 62 1014.2
20260831204504 76 0 0.0 0.0 0.00 0.00 0.00 62 1014.3
20260831204025 76 0 0.0 0.0 0.00 0.00 0.00 62 1014.3
20260831203504 76 0 0.0 0.0 0.00 0.00 0.00 61 1014.3
20260831203004 76 0 0.0 0.0 0.00 0.00 0.00 61 1014.2
20260831202504 76 0 0.0 0.0 0.00 0.00 0.00 60 1014.0
20260831202025 76 0 0.0 0.0 0.00 0.00 0.00 60 1014.0
20260831201504 76 22 0.0 0.9 0.00 0.00 0.00 60 1014.1
20260831201025 77 22 0.0 0.9 0.00 0.00 0.00 60 1013.9
20260831200504 77 19 0.9 2.6 0.00 0.00 0.00 60 1013.9
20260831200025 77 19 0.9 2.6 0.00 0.00 0.00 60 1013.8
20260831195525 77 22 0.0 2.6 0.00 0.00 0.00 59 1013.8
20260831195004 77 0 0.0 0.0 0.00 0.00 0.00 58 1013.8
20260831194504 78 0 0.0 0.0 0.00 0.00 0.00 58 1013.8
20260831194004 78 0 0.0 0.0 0.00 0.00 0.00 57 1013.7
20260831193504 78 0 0.0 0.0 0.00 0.00 0.00 56 1013.7
20260831193004 78 0 0.0 0.0 0.00 0.00 0.00 56 1013.7
20260831192504 78 0 0.0 0.0 0.00 0.00 0.00 56 1013.6
20260831192004 78 0 0.0 0.0 0.00 0.00 0.00 56 1013.6
20260831191504 78 0 0.0 0.0 0.00 0.00 0.00 55 1013.7
20260831191004 78 0 0.0 0.0 0.00 0.00 0.00 55 1013.9
20260831190525 78 0 0.0 0.0 0.00 0.00 0.00 55 1013.6
20260831190004 78 0 0.0 0.0 0.00 0.00 0.00 55 1013.4
20260831185504 78 0 0.0 0.0 0.00 0.00 0.00 55 1013.5
20260831185004 78 0 0.0 0.0 0.00 0.00 0.00 54 1013.5
20260831184504 78 0 0.0 0.0 0.00 0.00 0.00 54 1013.4
20260831184004 78 0 0.0 0.0 0.00 0.00 0.00 54 1013.3
20260831183504 79 0 0.0 0.0 0.00 0.00 0.00 53 1013.1
20260831183004 79 0 0.0 0.0 0.00 0.00 0.00 53 1013.2
20260831182504 80 0 0.0 0.0 0.00 0.00 0.00 52 1013.2
20260831182004 80 0 0.0 0.0 0.00 0.00 0.00 52 1013.0
20260831181504 80 0 0.0 0.0 0.00 0.00 0.00 52 1013.0
20260831181004 80 0 0.0 0.0 0.00 0.00 0.00 52 1013.0
20260831180504 81 0 0.0 0.0 0.00 0.00 0.00 52 1013.0
20260831180025 81 0 0.0 0.0 0.00 0.00 0.00 52 1012.8
20260831175504 81 0 0.0 0.0 0.00 0.00 0.00 51 1012.9
20260831175004 81 0 0.0 0.0 0.00 0.00 0.00 51 1013.1
20260831174504 82 360 0.0 0.9 0.00 0.00 0.00 46 1012.9
20260831174004 82 360 0.0 0.9 0.00 0.00 0.00 46 1013.1
20260831173504 83 0 0.0 0.0 0.00 0.00 0.00 46 1013.0
20260831173004 83 0 0.0 0.0 0.00 0.00 0.00 45 1012.9
20260831172525 84 0 0.0 0.0 0.00 0.00 0.00 45 1013.1
20260831172004 85 0 0.0 0.0 0.00 0.00 0.00 44 1013.0
20260831171525 86 0 0.0 0.0 0.00 0.00 0.00 44 1013.0
20260831171004 86 0 0.0 0.0 0.00 0.00 0.00 44 1013.0
20260831170504 86 315 0.0 0.9 0.00 0.00 0.00 43 1012.9
20260831170004 86 315 0.0 0.9 0.00 0.00 0.00 43 1012.8
20260831165504 86 315 0.0 0.9 0.00 0.00 0.00 43 1012.8
20260831165004 86 315 0.0 0.9 0.00 0.00 0.00 43 1013.1
20260831164504 86 304 0.0 1.7 0.00 0.00 0.00 42 1013.0
20260831164004 87 287 0.0 1.7 0.00 0.00 0.00 42 1013.1
20260831163504 87 275 0.0 0.9 0.00 0.00 0.00 43 1012.9
20260831163004 87 300 0.0 0.9 0.00 0.00 0.00 43 1013.2
20260831162504 87 247 0.0 1.7 0.00 0.00 0.00 43 1013.0
20260831162025 87 247 0.9 1.7 0.00 0.00 0.00 43 1013.1
20260831161504 87 247 0.0 0.9 0.00 0.00 0.00 43 1013.1
20260831161004 87 247 0.0 0.9 0.00 0.00 0.00 43 1013.1
20260831160504 87 289 0.0 1.7 0.00 0.00 0.00 43 1013.1
20260831160004 87 308 0.9 1.7 0.00 0.00 0.00 43 1013.1
20260831155504 87 319 0.9 3.5 0.00 0.00 0.00 43 1013.0
20260831155004 87 317 0.9 3.5 0.00 0.00 0.00 43 1013.1
20260831154504 87 247 0.0 0.9 0.00 0.00 0.00 43 1013.2
20260831154004 87 307 0.9 3.5 0.00 0.00 0.00 43 1013.3
20260831153504 87 297 2.6 4.3 0.00 0.00 0.00 43 1013.4
20260831153004 87 272 3.5 7.0 0.00 0.00 0.00 42 1013.3
20260831152504 87 274 2.6 7.0 0.00 0.00 0.00 43 1013.2
20260831152003 87 280 1.7 3.5 0.00 0.00 0.00 43 1013.2
20260831151504 87 280 1.7 5.2 0.00 0.00 0.00 43 1013.4
20260831151025 87 315 0.9 5.2 0.00 0.00 0.00 43 1013.5
20260831150504 88 286 0.9 3.5 0.00 0.00 0.00 42 1013.4
20260831150004 88 278 0.9 3.5 0.00 0.00 0.00 42 1013.4
20260831145504 88 299 0.0 1.7 0.00 0.00 0.00 42 1013.4
20260831145004 88 254 0.9 5.2 0.00 0.00 0.00 43 1013.5
20260831144504 88 254 0.9 5.2 0.00 0.00 0.00 42 1013.5
20260831144025 88 283 0.9 5.2 0.00 0.00 0.00 42 1013.4
20260831143504 88 275 0.9 2.6 0.00 0.00 0.00 42 1013.4
20260831143004 88 255 0.9 2.6 0.00 0.00 0.00 42 1013.5
20260831142504 88 279 0.0 5.2 0.00 0.00 0.00 42 1013.3
20260831142004 88 258 2.6 5.2 0.00 0.00 0.00 42 1013.3
20260831141525 88 254 3.5 5.2 0.00 0.00 0.00 42 1013.6
20260831141004 88 267 0.9 4.3 0.00 0.00 0.00 42 1013.3
20260831140504 87 346 0.9 3.5 0.00 0.00 0.00 42 1013.5
20260831140004 87 263 1.7 3.5 0.00 0.00 0.00 42 1013.5
20260831135504 87 251 0.9 3.5 0.00 0.00 0.00 42 1013.5
20260831135004 87 224 0.0 0.9 0.00 0.00 0.00 42 1013.5
20260831134503 87 212 2.6 7.0 0.00 0.00 0.00 43 1013.5
20260831134004 87 226 4.3 7.8 0.00 0.00 0.00 42 1013.5
20260831133503 87 249 5.2 7.8 0.00 0.00 0.00 42 1013.6
20260831133004 87 264 3.5 7.8 0.00 0.00 0.00 43 1013.5
20260831132504 87 291 1.7 7.0 0.00 0.00 0.00 43 1013.6
20260831132004 87 261 3.5 7.0 0.00 0.00 0.00 42 1013.6
20260831131504 87 270 3.5 7.0 0.00 0.00 0.00 42 1013.7
20260831131004 87 317 2.6 3.5 0.00 0.00 0.00 42 1013.7
20260831130504 87 295 3.5 6.1 0.00 0.00 0.00 42 1013.7
20260831130004 87 269 1.7 6.1 0.00 0.00 0.00 42 1013.9
20260831125504 86 229 0.9 7.0 0.00 0.00 0.00 43 1013.8
20260831125004 86 241 1.7 7.0 0.00 0.00 0.00 43 1013.9
20260831124504 86 232 1.7 6.1 0.00 0.00 0.00 42 1013.9
20260831124004 86 221 0.9 3.5 0.00 0.00 0.00 42 1014.1
20260831123503 86 288 1.7 5.2 0.00 0.00 0.00 42 1014.1
20260831123004 86 289 2.6 5.2 0.00 0.00 0.00 43 1014.0
20260831122504 86 252 3.5 7.0 0.00 0.00 0.00 42 1014.0
20260831122025 85 228 2.6 7.0 0.00 0.00 0.00 43 1014.2
20260831121503 85 205 2.6 7.0 0.00 0.00 0.00 43 1014.1
20260831121004 85 208 2.6 7.0 0.00 0.00 0.00 43 1014.2
20260831120504 85 213 3.5 4.3 0.00 0.00 0.00 43 1014.2
20260831120003 85 200 4.3 7.0 0.00 0.00 0.00 43 1014.3
20260831115504 85 186 3.5 7.0 0.00 0.00 0.00 43 1014.3
20260831115004 85 240 1.7 5.2 0.00 0.00 0.00 44 1014.3
20260831114504 85 217 2.6 5.2 0.00 0.00 0.00 44 1014.3
20260831114004 85 203 3.5 7.0 0.00 0.00 0.00 45 1014.3
20260831113503 85 210 2.6 7.0 0.00 0.00 0.00 45 1014.3
20260831113004 85 280 0.9 3.5 0.00 0.00 0.00 45 1014.4
20260831112525 85 278 0.9 3.5 0.00 0.00 0.00 45 1014.3
20260831112004 85 221 0.0 0.9 0.00 0.00 0.00 46 1014.4
20260831111503 85 292 0.9 3.5 0.00 0.00 0.00 45 1014.6
20260831111003 85 256 1.7 3.5 0.00 0.00 0.00 45 1014.6
20260831110524 84 247 2.6 3.5 0.00 0.00 0.00 45 1014.5
20260831110004 84 251 1.7 3.5 0.00 0.00 0.00 45 1014.5
20260831105503 84 252 0.9 3.5 0.00 0.00 0.00 45 1014.7
20260831105004 84 294 0.9 3.5 0.00 0.00 0.00 45 1014.6
20260831104504 84 309 2.6 4.3 0.00 0.00 0.00 44 1014.4
20260831104003 84 315 1.7 4.3 0.00 0.00 0.00 45 1014.6
20260831103503 84 312 0.9 2.6 0.00 0.00 0.00 45 1014.6
20260831103004 84 303 0.0 0.9 0.00 0.00 0.00 46 1014.6
20260831102525 84 315 0.0 0.9 0.00 0.00 0.00 45 1014.8
20260831102004 84 337 0.0 0.9 0.00 0.00 0.00 47 1014.6
20260831101503 84 360 0.0 0.9 0.00 0.00 0.00 47 1014.7
20260831101004 84 0 0.0 0.0 0.00 0.00 0.00 47 1014.7
20260831100504 83 269 0.0 0.9 0.00 0.00 0.00 47 1014.7
20260831100004 83 302 0.0 0.9 0.00 0.00 0.00 47 1014.8
20260831095503 83 22 0.0 0.9 0.00 0.00 0.00 48 1014.8
20260831095004 83 315 0.0 0.9 0.00 0.00 0.00 48 1014.7
20260831094504 83 289 0.0 0.9 0.00 0.00 0.00 49 1014.8
20260831094004 83 247 0.0 0.9 0.00 0.00 0.00 50 1014.8
20260831093504 83 315 0.0 0.9 0.00 0.00 0.00 50 1014.8
20260831093025 82 315 0.0 0.9 0.00 0.00 0.00 51 1014.8
20260831092504 83 315 0.0 0.9 0.00 0.00 0.00 51 1014.8
20260831092004 83 0 0.0 0.0 0.00 0.00 0.00 52 1014.9
20260831091503 82 0 0.0 0.0 0.00 0.00 0.00 52 1015.1
20260831091004 82 0 0.0 0.0 0.00 0.00 0.00 52 1015.0
20260831090504 82 0 0.0 0.0 0.00 0.00 0.00 53 1015.0
20260831090025 82 0 0.0 0.0 0.00 0.00 0.00 53 1015.0
20260831085504 82 0 0.0 0.0 0.00 0.00 0.00 53 1014.9
20260831085004 81 0 0.0 0.0 0.00 0.00 0.00 58 1014.9
20260831084503 81 0 0.0 0.0 0.00 0.00 0.00 57 1014.9
20260831084025 81 0 0.0 0.0 0.00 0.00 0.00 57 1014.8
20260831083503 81 0 0.0 0.0 0.00 0.00 0.00 58 1014.9
20260831083003 80 0 0.0 0.0 0.00 0.00 0.00 59 1014.9
20260831082503 80 0 0.0 0.0 0.00 0.00 0.00 59 1014.8
20260831082004 80 0 0.0 0.0 0.00 0.00 0.00 60 1014.7
20260831081503 79 0 0.0 0.0 0.00 0.00 0.00 60 1014.8
20260831081003 79 0 0.0 0.0 0.00 0.00 0.00 60 1014.6
20260831080525 78 0 0.0 0.0 0.00 0.00 0.00 60 1014.6
20260831080004 78 0 0.0 0.0 0.00 0.00 0.00 60 1014.7
20260831075524 78 22 0.0 0.9 0.00 0.00 0.00 60 1014.6
20260831075003 78 17 0.0 0.9 0.00 0.00 0.00 61 1014.6
20260831074504 78 5 0.0 0.9 0.00 0.00 0.00 61 1014.6
20260831074004 77 360 0.0 0.9 0.00 0.00 0.00 61 1014.6
20260831073503 77 360 0.0 0.9 0.00 0.00 0.00 62 1014.5
20260831073003 77 0 0.0 0.0 0.00 0.00 0.00 62 1014.4
20260831072504 77 0 0.0 0.0 0.00 0.00 0.00 63 1014.4
20260831072004 76 0 0.0 0.0 0.00 0.00 0.00 62 1014.5
20260831071503 76 0 0.0 0.0 0.00 0.00 0.00 62 1014.5
20260831071003 76 0 0.0 0.0 0.00 0.00 0.00 62 1014.6
20260831070503 76 0 0.0 0.0 0.00 0.00 0.00 63 1014.6
20260831070004 76 0 0.0 0.0 0.00 0.00 0.00 63 1014.5
20260831065525 76 0 0.0 0.0 0.00 0.00 0.00 63 1014.6
20260831065004 75 0 0.0 0.0 0.00 0.00 0.00 63 1014.5
20260831064504 75 0 0.0 0.0 0.00 0.00 0.00 64 1014.5
20260831064003 74 360 0.0 0.9 0.00 0.00 0.00 64 1014.5
20260831063503 74 360 0.0 0.9 0.00 0.00 0.00 64 1014.4
20260831063003 74 353 0.0 0.9 0.00 0.00 0.00 65 1014.4
20260831062503 74 353 0.0 0.9 0.00 0.00 0.00 65 1014.5
20260831062025 73 0 0.0 0.0 0.00 0.00 0.00 65 1014.5
20260831061503 73 360 0.0 2.6 0.00 0.00 0.00 65 1014.5
20260831061003 73 360 0.0 2.6 0.00 0.00 0.00 65 1014.5
20260831060503 72 8 0.0 0.9 0.00 0.00 0.00 70 1014.5
20260831060004 72 9 0.0 0.9 0.00 0.00 0.00 70 1014.4
20260831055504 72 11 0.0 0.9 0.00 0.00 0.00 70 1014.3
20260831055004 71 360 0.0 0.9 0.00 0.00 0.00 70 1014.3
20260831054504 71 11 0.9 1.7 0.00 0.00 0.00 71 1014.4
20260831054003 71 14 0.9 1.7 0.00 0.00 0.00 71 1014.3
20260831053504 70 21 0.9 2.6 0.00 0.00 0.00 71 1014.5
20260831053003 70 21 0.9 2.6 0.00 0.00 0.00 71 1014.2
20260831052504 69 17 0.9 1.7 0.00 0.00 0.00 72 1014.3
20260831052004 69 360 0.0 0.9 0.00 0.00 0.00 72 1014.0
20260831051504 69 9 0.9 3.5 0.00 0.00 0.00 72 1014.1
20260831051024 69 10 0.9 3.5 0.00 0.00 0.00 72 1014.0
20260831050503 69 2 0.9 3.5 0.00 0.00 0.00 72 1014.1
20260831050005 69 4 0.9 1.7 0.00 0.00 0.00 72 1014.2
20260831045504 69 9 0.9 1.7 0.00 0.00 0.00 72 1014.0
20260831045003 69 16 0.9 1.7 0.00 0.00 0.00 73 1014.2
20260831044503 69 14 0.0 1.7 0.00 0.00 0.00 73 1013.9
20260831044004 69 7 0.0 1.7 0.00 0.00 0.00 73 1014.0
20260831043525 69 11 0.0 1.7 0.00 0.00 0.00 73 1014.1
20260831043024 69 0 0.0 0.0 0.00 0.00 0.00 72 1014.1
20260831042503 69 10 0.9 1.7 0.00 0.00 0.00 71 1013.9
20260831042024 69 9 0.9 1.7 0.00 0.00 0.00 70 1014.1
20260831041546 69 347 0.9 1.7 0.00 0.00 0.00 70 1014.2
20260831041003 70 333 0.9 1.7 0.00 0.00 0.00 69 1014.4
20260831040503 71 0 0.0 0.0 0.00 0.00 0.00 68 1014.2
20260831040003 71 0 0.0 0.0 0.00 0.00 0.00 68 1014.1
20260831035504 71 0 0.0 0.0 0.00 0.00 0.00 68 1014.1
20260831035004 71 0 0.0 0.0 0.00 0.00 0.00 68 1013.9
20260831034503 71 0 0.0 0.0 0.00 0.00 0.00 68 1014.0
20260831034003 71 0 0.0 0.0 0.00 0.00 0.00 68 1014.1
20260831033503 71 0 0.0 0.0 0.00 0.00 0.00 68 1014.0
20260831033024 71 9 0.0 1.7 0.00 0.00 0.00 68 1014.1
20260831032503 71 9 0.0 1.7 0.00 0.00 0.00 68 1014.3
20260831032003 71 22 0.0 0.9 0.00 0.00 0.00 68 1014.1
20260831031503 71 11 0.0 0.9 0.00 0.00 0.00 68 1014.3
20260831031025 71 9 0.0 0.9 0.00 0.00 0.00 68 1014.3
20260831030503 71 9 0.0 1.7 0.00 0.00 0.00 69 1014.4
20260831030003 71 11 0.9 1.7 0.00 0.00 0.00 69 1014.3
20260831025503 71 20 0.0 1.7 0.00 0.00 0.00 69 1014.2
20260831025003 71 16 0.9 1.7 0.00 0.00 0.00 69 1014.4
20260831024503 71 8 0.9 2.6 0.00 0.00 0.00 70 1014.3
20260831024024 71 5 1.7 4.3 0.00 0.00 0.00 70 1014.4
20260831023503 71 10 1.7 4.3 0.00 0.00 0.00 70 1014.4
20260831023003 71 14 1.7 3.5 0.00 0.00 0.00 69 1014.4
20260831022524 71 16 0.9 1.7 0.00 0.00 0.00 69 1014.4
20260831022003 71 18 0.0 1.7 0.00 0.00 0.00 68 1014.3
20260831021525 71 19 0.0 1.7 0.00 0.00 0.00 68 1014.4
20260831021003 71 22 0.0 0.9 0.00 0.00 0.00 69 1014.3
20260831020524 71 9 0.0 0.9 0.00 0.00 0.00 69 1014.4
20260831020003 71 10 0.9 1.7 0.00 0.00 0.00 69 1014.4
20260831015503 71 19 0.9 1.7 0.00 0.00 0.00 69 1014.3
20260831015004 71 19 0.9 1.7 0.00 0.00 0.00 70 1014.3
20260831014503 71 5 0.9 2.6 0.00 0.00 0.00 70 1014.3
20260831014004 71 4 0.9 2.6 0.00 0.00 0.00 70 1014.4
20260831013504 71 12 0.9 2.6 0.00 0.00 0.00 70 1014.4
20260831013004 71 14 0.9 1.7 0.00 0.00 0.00 70 1014.6
20260831012503 71 11 0.9 1.7 0.00 0.00 0.00 70 1014.5
20260831012003 71 11 0.0 0.9 0.00 0.00 0.00 70 1014.5
20260831011503 71 14 0.0 0.9 0.00 0.00 0.00 70 1014.5
20260831011004 71 11 0.0 0.9 0.00 0.00 0.00 70 1014.5
20260831010504 71 8 0.0 0.9 0.00 0.00 0.00 70 1014.5
20260831010003 71 360 0.0 0.9 0.00 0.00 0.00 70 1014.4
20260831005503 71 8 0.0 0.9 0.00 0.00 0.00 70 1014.5
20260831005003 72 8 0.9 0.9 0.00 0.00 0.00 70 1014.4
20260831004524 72 4 0.0 0.9 0.00 0.00 0.00 69 1014.4
20260831004003 72 0 0.0 0.0 0.00 0.00 0.00 68 1014.3
20260831003504 72 0 0.0 0.0 0.00 0.00 0.00 68 1014.3
20260831003003 72 0 0.0 0.0 0.00 0.00 0.00 67 1014.3
20260831002503 72 22 0.0 0.9 0.00 0.00 0.00 67 1014.4
20260831002004 72 22 0.0 0.9 0.00 0.00 0.00 64 1014.4
20260831001503 72 22 0.0 0.9 0.00 0.00 0.00 64 1014.5
20260831001003 72 0 0.0 0.0 0.00 0.00 0.00 64 1014.6
20260831000503 72 360 0.0 0.9 0.00 0.00 0.00 63 1014.5
20260831000003 72 360 0.0 0.9 0.00 0.00 0.00 63 1014.8
20260830235524 72 360 0.0 0.9 0.00 0.00 0.00 64 1014.5
20260830235003 72 9 0.0 0.9 0.00 0.00 0.00 67 1014.7
20260830234503 72 6 0.0 0.9 0.00 0.00 0.00 68 1014.8
20260830234024 72 360 0.0 0.9 0.00 0.00 0.00 67 1014.8
20260830233503 72 0 0.0 0.0 0.00 0.00 0.00 63 1014.7
20260830233003 73 0 0.0 0.0 0.00 0.00 0.00 63 1014.8
20260830232503 73 0 0.0 0.0 0.00 0.00 0.00 63 1014.7
20260830232003 72 11 0.0 0.9 0.00 0.00 0.00 63 1014.8
20260830231503 73 9 0.0 0.9 0.00 0.00 0.00 63 1014.7
20260830231003 73 11 0.0 0.9 0.00 0.00 0.00 63 1014.6
20260830230503 73 11 0.0 0.9 0.00 0.00 0.00 63 1014.7
20260830230024 73 360 0.0 0.9 0.00 0.00 0.00 63 1014.7
20260830225503 73 11 0.0 0.9 0.00 0.00 0.00 63 1014.9
20260830225024 73 5 0.0 0.9 0.00 0.00 0.00 62 1014.8
20260830224503 73 360 0.0 0.9 0.00 0.00 0.00 62 1014.9
20260830224003 73 360 0.0 0.9 0.00 0.00 0.00 62 1015.0
20260830223524 73 4 0.0 0.9 0.00 0.00 0.00 62 1015.0
20260830223003 73 7 0.0 0.9 0.00 0.00 0.00 62 1014.9
20260830222524 73 11 0.0 0.9 0.00 0.00 0.00 62 1014.9
20260830222003 73 17 0.0 0.9 0.00 0.00 0.00 62 1014.8
20260830221503 73 22 0.0 0.9 0.00 0.00 0.00 62 1014.8
20260830221024 73 22 0.0 0.9 0.00 0.00 0.00 62 1014.9